Temperature
22 24 25 26 26 26 25 22 22 22 21 21 21 21 22 23 23 23 23 23 23 23 23 23 22 22 21 21 21 20 20 20 19 19 19 18 18 18 18 18 17 17 17 17
21 24 25 25 26 26 26 25 23 22 22 21 22 23 22 23 23 22 23 23 23 23 23 22 22 22 21 21 21 20 20 20 19 19 19 18 18 18 17 17 17 17 17 17
19 21 23 23 24 25 24 24 23 22 21 21 21 21 22 22 22 22 22 23 22 23 23 22 22 22 21 21 20 20 20 19 19 19 18 18 18 17 17 17 17 16 16 16
18 21 22 21 22 24 24 23 22 22 21 21 21 22 23 23 23 23 23 23 23 23 22 22 22 22 21 21 20 20 19 19 19 19 18 18 17 17 17 16 16 16 16 16
17 19 20 21 23 23 22 21 21 21 21 21 22 21 21 22 23 24 24 23 23 23 22 22 22 21 21 20 20 20 19 19 19 18 18 18 17 17 17 16 16 16 16 15
17 19 19 20 22 23 22 20 21 21 21 21 21 19 19 22 23 23 23 23 23 22 22 22 22 21 21 20 20 19 19 19 19 18 18 18 17 17 16 16 16 15 15 15
17 18 18 20 21 22 21 19 20 21 21 21 20 20 21 22 22 23 23 22 22 22 22 21 21 21 20 20 20 19 19 18 18 18 17 17 17 16 16 16 15 15 15 14
16 17 18 19 19 19 18 19 20 20 20 21 21 21 21 21 22 22 22 22 21 21 21 21 21 20 20 20 19 19 18 18 17 17 17 16 16 16 16 15 15 15 14 14
15 16 17 18 18 19 19 18 19 19 20 20 20 20 20 20 20 21 21 21 21 21 20 20 20 20 19 19 18 18 18 17 17 17 16 16 16 15 15 15 15 14 14 14
15 15 16 17 18 18 19 19 19 19 20 20 19 19 19 19 19 20 20 20 20 20 19 19 19 19 19 18 18 17 17 17 16 16 16 15 15 15 15 15 14 14 14 14
14 15 16 17 17 17 18 18 19 19 19 19 19 18 18 18 18 18 18 18 19 19 18 18 18 18 18 17 17 17 17 16 16 16 15 15 15 14 14 14 14 14 14 14
14 15 14 15 16 17 17 17 18 18 18 18 18 18 18 18 17 18 18 17 17 17 17 17 17 17 17 16 16 16 16 16 15 15 15 15 14 14 14 13 13 13 13 13
16 16 16 16 16 17 17 17 17 18 17 17 17 17 18 17 17 17 17 17 17 17 17 16 16 16 16 16 16 16 15 15 15 14 14 14 14 14 13 13 13 13 12 12
16 16 15 16 16 16 16 16 17 17 17 16 16 17 17 16 16 16 16 16 16 16 16 16 16 16 15 15 15 15 15 15 14 14 14 14 14 13 13 13 13 13 12 12
15 15 15 15 15 16 16 16 16 16 16 15 16 16 16 16 16 15 15 15 15 15 15 15 15 15 15 15 15 14 14 14 14 14 14 13 13 13 13 13 13 12 12 12
15 15 15 15 15 15 15 15 15 15 15 15 15 15 15 15 15 15 15 15 15 15 15 15 15 15 15 14 14 14 14 14 13 13 13 13 13 12 12 12 12 12 12 12
14 14 14 14 14 14 14 14 15 14 15 15 15 15 14 14 14 14 14 14 14 14 14 14 14 14 14 14 14 14 13 13 13 13 13 13 12 12 12 12 12 12 12 11
13 13 13 13 14 14 14 14 14 14 14 14 14 14 14 14 14 14 13 13 14 14 13 13 13 13 13 13 13 13 13 13 13 12 12 12 12 12 12 11 11 11 11 11
13 13 13 13 13 13 14 14 14 14 14 14 14 13 13 13 13 13 13 13 13 13 13 13 13 13 13 13 13 13 13 12 12 12 12 12 11 11 11 11 11 11 10 10
13 12 13 13 13 13 13 13 13 13 13 13 13 13 13 13 13 13 13 13 12 12 12 12 12 12 12 12 12 12 12 12 12 12 11 11 11 11 11 11 10 10 10 10
12 12 12 12 12 12 12 12 12 12 12 12 12 12 12 12 12 12 12 12 12 12 12 12 12 12 12 12 12 12 12 12 11 11 11 11 11 10 10 10 10 10 10 9
12 12 12 12 12 12 12 12 12 12 12 12 12 12 12 12 12 12 12 11 11 11 11 11 11 11 11 11 11 11 11 11 11 11 11 10 10 10 10 10 9 9 9 9
11 11 11 11 11 11 11 11 11 11 11 11 11 11 11 11 11 11 11 11 11 11 11 11 11 11 11 11 11 10 10 10 10 10 10 10 10 10 9 9 9 9 9 8
11 11 11 11 11 11 11 11 11 11 11 11 11 11 11 11 11 11 11 11 10 10 10 10 10 10 10 10 10 10 10 10 10 10 10 10 9 9 9 9 9 8 8 8
10 10 10 10 10 10 10 10 10 10 10 10 10 10 10 10 10 10 10 10 10 10 10 10 10 10 10 10 10 10 10 9 9 9 9 9 9 9 9 8 8 8 8 8
10 10 10 10 10 10 10 10 10 10 10 10 10 10 10 10 10 10 10 9 9 9 9 9 9 9 9 9 9 9 9 9 9 9 9 9 8 8 8 8 8 8 7 7
10 10 10 10 10 10 10 10 10 10 9 9 9 9 9 9 9 9 9 9 9 9 9 9 9 9 9 9 9 9 9 8 8 8 8 8 8 8 8 7 7 7 7 7
Wind_Speed
4 5 2 3 5 3 2 7 8 8 9 9 10 11 10 9 8 8 6 7 8 9 8 8 8 8 8 8 8 9 9 8 7 6 6 5 5 5 4 4 4 4 3 2
5 5 4 4 5 5 3 2 4 5 5 7 6 5 5 7 9 9 8 9 9 8 8 8 9 9 9 9 9 9 9 8 8 7 7 6 6 5 5 4 3 4 3 3
4 6 5 5 4 2 4 2 4 5 6 4 4 6 8 9 10 9 9 8 8 8 8 8 8 10 11 10 9 9 9 8 8 8 7 7 6 6 5 4 3 3 3 3
0 3 4 7 4 2 3 3 1 3 4 6 7 7 7 8 11 11 9 8 8 8 8 7 7 7 8 9 10 10 9 9 8 8 7 6 6 5 4 4 3 3 3 3
2 2 6 6 5 2 2 4 2 3 3 3 4 5 3 1 5 8 8 7 7 7 7 7 7 8 8 9 9 9 9 9 8 8 8 7 6 5 4 4 3 3 3 3
3 3 6 6 6 3 4 2 3 3 4 3 5 4 3 3 3 5 5 6 6 6 6 7 6 8 9 8 8 9 8 8 8 8 8 8 7 5 4 4 4 3 3 2
4 5 6 5 7 4 1 5 4 1 3 4 4 6 5 3 3 4 4 5 6 7 7 7 7 9 9 8 8 7 7 7 6 6 6 6 5 4 4 4 4 3 3 2
3 3 7 5 4 1 4 3 1 1 1 4 5 6 6 5 4 6 6 6 7 7 6 5 7 9 8 7 6 7 8 8 7 6 5 5 5 5 4 5 4 3 2 2
4 5 4 2 1 2 1 1 1 1 2 6 7 6 7 5 5 6 7 6 6 7 6 5 6 8 8 6 7 8 8 8 7 6 4 4 5 5 4 4 4 3 3 2
1 2 3 3 2 4 3 2 2 3 4 6 8 7 6 6 6 6 7 6 6 8 7 5 4 5 6 7 8 9 9 7 7 7 5 4 4 4 4 3 4 4 3 3
1 3 5 5 4 4 5 5 5 4 4 5 9 8 6 6 6 6 6 5 6 7 7 6 5 6 6 7 9 9 8 7 6 6 6 5 4 3 3 3 4 5 4 4
4 4 2 4 4 3 4 4 4 5 5 2 5 7 6 5 4 6 6 5 6 6 6 5 5 5 4 6 8 9 8 6 5 5 5 5 4 2 3 2 2 3 4 4
4 3 2 3 3 4 4 3 4 3 3 2 3 5 6 5 4 5 6 5 5 5 5 5 5 5 4 5 6 7 7 6 5 5 5 5 5 5 3 1 2 2 2 3
2 2 0 1 1 2 3 3 5 6 5 3 4 5 6 5 5 5 5 4 4 5 5 5 5 4 3 5 5 6 6 6 5 5 5 5 5 5 4 4 2 0 1 2
1 1 2 0 1 2 4 4 5 4 4 5 4 4 5 6 5 4 3 4 5 5 4 4 4 3 3 4 5 5 4 4 4 4 4 4 4 4 4 4 3 2 1 0
0 2 2 2 2 3 4 4 3 2 3 3 2 2 3 5 5 3 4 4 4 4 2 3 2 2 3 4 4 3 3 5 5 4 4 4 4 4 3 3 3 3 3 2
1 1 1 1 2 3 3 2 1 1 3 3 3 3 3 5 5 3 3 3 3 3 2 2 1 1 3 4 4 3 2 3 4 4 3 4 4 4 4 3 3 3 3 4
1 2 2 2 1 1 2 2 1 2 3 3 3 4 5 5 4 3 2 3 3 3 2 1 1 2 2 3 3 3 3 3 3 3 3 3 3 3 3 3 4 4 3 3
3 3 2 1 0 0 1 0 1 2 3 4 4 4 3 3 3 3 3 3 3 1 1 0 2 3 2 2 3 4 4 4 3 3 3 4 3 2 2 2 2 2 2 2
2 3 3 3 3 2 1 1 2 3 3 4 4 3 3 2 3 4 4 3 1 1 1 2 3 2 1 2 4 3 3 3 4 3 3 3 3 2 2 2 2 2 2 2
2 3 3 3 3 3 2 3 3 3 2 3 4 3 2 2 3 4 4 2 1 1 2 3 3 2 2 2 3 3 3 3 3 3 4 4 3 3 2 2 2 2 2 2
2 1 2 2 2 2 2 3 3 3 2 2 2 2 2 2 3 3 3 2 1 3 3 3 2 2 3 3 2 3 3 3 3 3 3 3 3 3 3 3 3 2 2 2
3 2 2 2 1 1 2 3 2 2 2 1 2 2 3 2 3 4 2 1 2 4 3 2 3 5 5 4 3 4 3 4 4 3 3 3 3 3 3 3 3 3 3 2
3 3 3 3 3 4 3 2 2 2 2 2 2 3 4 3 3 2 3 4 4 5 3 3 4 5 5 3 3 4 4 4 3 3 3 3 3 3 3 3 3 3 3 2
3 3 4 4 4 2 2 2 3 4 4 4 4 4 3 3 3 2 3 4 5 4 3 3 5 5 4 3 4 4 4 4 4 3 3 3 3 4 3 3 3 3 3 2
3 3 2 2 2 1 1 2 3 3 4 4 4 4 4 3 4 3 3 3 4 4 3 2 3 4 3 4 4 4 4 4 4 4 4 4 4 4 3 3 4 3 3 3
4 3 3 3 3 3 4 4 4 3 3 4 4 3 3 3 3 4 4 3 3 3 3 3 3 3 4 4 4 4 3 3 4 4 4 3 3 3 3 4 3 3 4 4
Wind_Direction
227 239 247 273 294 296 216 196 188 206 191 208 202 188 182 167 154 140 153 167 173 175 172 167 162 161 165 168 168 161 155 157 163 160 153 148 149 149 142 136 139 138 134 128
342 335 351 323 317 318 293 218 173 161 211 220 202 178 158 162 156 160 174 181 175 164 159 164 167 167 168 172 170 159 158 163 162 156 151 148 148 144 139 136 135 131 133 134
304 318 8 312 288 306 307 291 161 190 220 197 169 179 176 173 165 172 186 184 171 165 164 167 172 172 173 169 163 159 162 166 163 160 159 160 155 149 147 143 134 130 134 131
314 17 247 247 280 51 56 7 75 149 177 177 176 186 180 164 164 180 190 180 172 167 165 168 173 168 163 158 161 165 166 167 164 160 158 156 153 156 156 149 148 147 143 141
134 211 273 298 320 354 56 341 10 126 149 150 133 89 44 187 175 181 184 177 175 169 162 163 164 159 153 158 161 164 166 166 166 162 158 157 161 165 160 153 152 155 153 149
156 189 230 253 291 308 76 319 317 115 139 165 128 129 232 238 162 155 163 165 161 154 142 148 158 153 148 155 158 167 171 166 161 162 160 162 165 166 157 150 154 149 145 149
189 218 251 270 307 13 91 227 277 194 158 169 189 189 188 177 146 138 141 144 142 139 145 155 154 146 149 154 168 169 154 147 146 151 152 151 152 151 145 141 137 140 144 144
163 208 249 319 3 94 227 246 266 338 123 144 146 129 121 126 126 117 114 122 131 129 137 147 143 142 148 160 160 141 136 139 137 136 143 150 144 142 138 141 145 147 138 126
192 216 254 311 174 222 124 87 24 52 88 134 130 127 119 122 117 109 109 113 119 121 119 119 134 139 145 153 143 138 136 141 143 135 139 155 153 149 143 146 152 154 147 154
359 289 314 338 32 29 43 49 40 83 110 126 121 123 121 129 122 115 110 112 111 112 114 111 119 126 137 141 140 139 137 144 147 144 151 155 145 149 154 163 167 169 175 177
308 290 351 353 2 21 17 36 47 61 79 126 128 125 131 132 128 123 112 112 120 122 123 123 118 118 125 137 141 142 145 152 155 152 156 151 144 154 169 183 182 176 189 181
232 244 218 282 311 12 38 40 72 81 65 67 133 129 124 120 122 123 124 127 120 118 120 120 118 120 129 142 146 145 147 157 162 162 160 157 148 116 62 116 136 167 173 168
214 236 221 260 329 17 33 28 67 76 105 132 133 123 118 112 104 109 119 125 127 127 128 124 118 123 129 140 143 146 154 163 165 166 166 167 165 162 159 71 51 74 175 183
168 118 326 323 323 22 53 52 67 57 62 84 98 98 102 103 100 99 102 106 116 116 119 120 120 127 138 138 143 148 153 160 162 171 174 174 174 174 171 168 167 251 288 203
242 161 198 201 43 54 68 66 67 61 67 61 67 84 102 109 106 104 101 98 97 102 108 114 125 142 141 137 140 147 154 161 159 164 161 165 167 168 173 173 170 169 142 54
195 29 36 40 34 41 54 60 82 78 98 98 87 80 109 117 109 99 99 105 109 113 123 123 132 156 145 142 142 146 157 161 158 159 160 161 163 165 178 185 185 184 193 199
67 345 350 351 31 39 44 57 115 165 125 115 125 123 115 107 101 93 82 87 107 112 115 134 172 162 140 145 146 149 148 152 152 152 158 161 162 170 178 181 190 199 208 194
167 188 194 183 152 58 30 62 87 103 123 131 119 114 122 130 140 143 127 99 83 61 44 66 118 117 123 137 147 145 141 142 142 145 148 147 150 154 157 173 185 192 203 188
52 51 19 357 93 74 331 307 110 102 106 111 107 108 118 138 149 141 122 106 103 83 301 1 89 91 100 116 128 133 134 140 139 131 126 128 127 134 149 163 177 185 181 167
26 22 31 30 32 40 32 56 83 92 104 112 111 108 116 138 139 132 117 102 133 204 185 108 92 79 78 99 111 125 135 142 138 131 128 132 137 140 140 139 139 142 144 146
19 19 36 30 23 33 44 64 78 77 79 99 109 119 142 137 136 130 119 98 341 67 91 86 79 68 66 95 109 119 125 128 134 139 139 137 136 134 128 120 115 107 106 115
36 19 28 36 35 26 28 45 63 77 83 87 96 108 110 110 114 106 102 125 123 93 84 71 66 70 83 97 103 109 117 119 121 123 125 127 128 127 123 123 122 125 126 124
27 26 33 39 53 55 43 46 51 64 77 97 110 114 119 129 128 122 110 87 99 91 82 71 76 80 81 85 89 92 103 118 120 121 123 125 127 130 131 131 134 132 126 123
32 32 26 30 44 54 47 25 35 64 80 79 85 107 115 108 81 78 117 115 105 96 83 82 88 90 88 83 87 93 94 96 105 114 120 119 115 114 117 121 123 123 120 114
34 41 43 45 44 41 39 39 42 54 70 68 58 61 80 107 119 109 99 105 110 98 87 81 89 89 83 82 92 96 97 99 104 108 106 108 110 109 107 108 114 119 120 119
42 48 38 45 56 58 60 69 74 75 79 76 58 52 61 73 89 92 98 104 103 102 99 88 89 86 79 83 90 94 94 95 93 95 102 107 111 112 112 114 115 121 119 115
36 40 44 40 34 46 63 72 81 82 84 96 89 69 71 79 86 89 93 95 93 85 79 75 77 81 81 83 84 82 84 90 94 98 101 105 109 111 114 113 111 111 112 113
Height
1499 1494 1491 1492 1492 1491 1497 1504 1514 1511 1509 1503 1498 1496 1495 1496 1498 1500 1504 1507 1509 1511 1513 1515 1518 1520 1522 1524 1525 1526 1528 1529 1531 1532 1534 1534 1535 1536 1536 1537 1537 1538 1538 1537
1501 1492 1490 1492 1489 1488 1489 1492 1498 1500 1503 1494 1493 1493 1494 1495 1497 1500 1503 1505 1507 1509 1511 1514 1516 1518 1520 1521 1523 1525 1526 1528 1529 1531 1532 1533 1534 1534 1534 1535 1535 1535 1535 1535
1514 1500 1495 1504 1493 1490 1490 1489 1493 1501 1497 1492 1493 1492 1492 1493 1495 1498 1500 1502 1504 1506 1508 1511 1513 1516 1517 1520 1521 1523 1525 1527 1528 1529 1530 1531 1532 1532 1532 1533 1533 1533 1533 1533
1517 1510 1517 1504 1487 1485 1487 1488 1487 1489 1489 1489 1488 1488 1489 1490 1492 1496 1497 1500 1503 1505 1507 1509 1511 1514 1516 1518 1519 1521 1522 1524 1526 1527 1528 1529 1530 1530 1530 1530 1531 1531 1530 1530
1521 1520 1513 1497 1487 1486 1490 1494 1488 1488 1488 1488 1488 1489 1491 1491 1492 1494 1496 1498 1501 1503 1505 1508 1510 1512 1514 1516 1517 1519 1520 1522 1523 1525 1526 1527 1528 1528 1528 1528 1528 1528 1528 1528
1516 1518 1519 1502 1486 1483 1487 1499 1489 1486 1487 1489 1488 1495 1494 1491 1492 1493 1495 1497 1499 1501 1503 1505 1507 1510 1512 1514 1515 1516 1518 1520 1521 1523 1524 1524 1525 1526 1526 1526 1526 1526 1526 1525
1513 1515 1507 1493 1485 1484 1501 1501 1489 1485 1484 1486 1487 1487 1488 1489 1490 1492 1493 1495 1497 1499 1501 1503 1505 1508 1509 1511 1513 1515 1517 1518 1519 1521 1522 1522 1523 1523 1524 1524 1524 1524 1524 1523
1512 1515 1511 1490 1487 1491 1494 1488 1487 1485 1482 1483 1482 1484 1484 1487 1488 1489 1491 1493 1495 1497 1498 1501 1503 1505 1506 1508 1511 1513 1515 1516 1517 1518 1519 1520 1520 1521 1521 1522 1521 1521 1521 1521
1505 1505 1495 1490 1489 1488 1487 1487 1485 1484 1482 1482 1482 1483 1483 1486 1487 1487 1489 1492 1493 1495 1497 1499 1501 1503 1504 1506 1508 1510 1512 1514 1515 1515 1518 1519 1518 1519 1519 1520 1519 1519 1519 1519
1500 1496 1492 1490 1488 1486 1486 1485 1484 1483 1482 1482 1481 1483 1484 1486 1487 1487 1489 1491 1492 1494 1496 1498 1499 1501 1503 1505 1506 1508 1509 1511 1512 1513 1515 1516 1516 1517 1517 1518 1518 1518 1518 1517
1499 1495 1492 1490 1489 1487 1485 1484 1484 1484 1484 1484 1482 1483 1485 1486 1487 1487 1488 1491 1493 1493 1495 1497 1498 1500 1502 1504 1504 1506 1507 1509 1510 1511 1513 1512 1513 1515 1516 1516 1517 1517 1517 1517
1499 1494 1494 1492 1490 1487 1485 1484 1484 1484 1484 1486 1485 1483 1484 1485 1486 1487 1489 1491 1492 1493 1494 1496 1498 1499 1501 1502 1503 1503 1504 1506 1508 1509 1510 1511 1512 1513 1514 1515 1515 1516 1516 1516
1492 1491 1492 1491 1489 1488 1486 1485 1484 1484 1483 1486 1485 1484 1483 1485 1487 1488 1489 1491 1492 1493 1494 1496 1497 1498 1499 1500 1501 1502 1503 1504 1505 1507 1508 1509 1510 1510 1511 1513 1514 1514 1514 1514
1490 1490 1490 1489 1488 1487 1486 1485 1484 1483 1482 1483 1483 1484 1484 1485 1487 1489 1489 1490 1491 1492 1493 1494 1495 1497 1498 1499 1500 1501 1501 1502 1503 1504 1505 1507 1507 1508 1509 1510 1511 1511 1512 1512
1489 1489 1488 1487 1487 1486 1485 1484 1483 1482 1481 1482 1483 1485 1485 1485 1487 1488 1489 1490 1491 1492 1492 1493 1494 1495 1496 1497 1498 1498 1499 1500 1501 1502 1502 1504 1505 1506 1507 1508 1508 1509 1510 1510
1487 1487 1487 1487 1486 1485 1483 1484 1484 1484 1483 1483 1485 1485 1486 1486 1487 1488 1488 1489 1491 1491 1491 1492 1493 1493 1494 1495 1496 1496 1497 1498 1499 1499 1500 1501 1502 1503 1505 1505 1506 1506 1507 1508
1485 1485 1485 1486 1485 1483 1482 1483 1484 1484 1483 1483 1483 1485 1485 1485 1486 1488 1488 1490 1490 1490 1491 1491 1492 1492 1493 1493 1494 1495 1496 1496 1497 1498 1498 1499 1500 1501 1502 1503 1503 1504 1504 1505
1483 1484 1484 1484 1482 1482 1482 1482 1483 1483 1482 1483 1483 1483 1484 1485 1486 1487 1488 1489 1489 1490 1490 1491 1491 1491 1491 1491 1492 1493 1494 1494 1495 1496 1497 1498 1498 1499 1500 1500 1501 1501 1502 1502
1481 1482 1482 1482 1481 1481 1481 1481 1481 1481 1482 1483 1483 1483 1484 1485 1485 1486 1487 1487 1488 1488 1489 1489 1490 1490 1490 1490 1490 1491 1492 1493 1493 1494 1495 1496 1496 1497 1498 1498 1498 1499 1499 1500
1480 1480 1480 1481 1481 1481 1481 1481 1480 1480 1481 1482 1482 1483 1483 1484 1484 1485 1486 1486 1486 1486 1487 1488 1489 1489 1489 1489 1490 1490 1491 1491 1492 1492 1493 1494 1495 1495 1496 1496 1496 1497 1497 1497
1480 1479 1480 1479 1480 1480 1480 1480 1480 1480 1480 1481 1481 1482 1482 1482 1483 1484 1484 1484 1485 1486 1486 1487 1487 1488 1488 1488 1489 1489 1490 1490 1491 1492 1492 1493 1493 1494 1494 1495 1495 1495 1495 1495
1479 1479 1478 1478 1478 1479 1479 1479 1479 1479 1479 1480 1480 1481 1481 1481 1482 1482 1483 1484 1485 1486 1486 1486 1487 1487 1487 1488 1488 1488 1489 1489 1490 1491 1491 1492 1492 1492 1493 1493 1494 1494 1494 1494
1478 1478 1477 1477 1477 1477 1477 1478 1478 1478 1478 1478 1479 1480 1480 1480 1481 1481 1482 1483 1484 1485 1486 1486 1487 1487 1487 1487 1487 1487 1488 1488 1489 1490 1491 1491 1492 1492 1492 1492 1492 1493 1492 1492
1479 1478 1478 1477 1477 1477 1476 1477 1477 1477 1477 1478 1479 1479 1479 1480 1480 1481 1482 1482 1483 1484 1485 1486 1486 1487 1487 1487 1487 1487 1488 1488 1488 1490 1490 1491 1491 1491 1491 1491 1491 1491 1491 1490
1479 1479 1478 1478 1478 1477 1477 1477 1477 1477 1477 1477 1478 1479 1479 1480 1480 1481 1482 1482 1483 1484 1485 1486 1487 1487 1487 1487 1487 1488 1488 1488 1489 1490 1490 1490 1490 1490 1490 1490 1490 1489 1489 1489
1480 1480 1479 1479 1479 1478 1478 1478 1478 1478 1478 1478 1479 1480 1480 1481 1481 1482 1482 1483 1484 1485 1486 1487 1487 1487 1487 1488 1488 1488 1488 1489 1489 1489 1489 1489 1490 1490 1489 1489 1488 1488 1488 1487
1482 1481 1481 1480 1480 1480 1480 1480 1480 1480 1480 1481 1481 1482 1482 1483 1483 1484 1484 1485 1485 1486 1487 1487 1488 1488 1488 1489 1489 1489 1489 1489 1489 1489 1489 1489 1489 1489 1488 1488 1488 1487 1487 1486